Location: Club d'Astronomie Sirius du Saguenay
(48.5448°N, 71.1471°W)
Time: 22:57:02
(UTC-05:00)

N. Korean satellite - Visible Passes

Search period start: 19 February 2018 00:00
Search period end: 01 March 2018 00:00
Orbit: 459 x 514 km, 97.2° (Epoch: 19 February)

Date Brightness Start Highest point End Pass type
(mag) Time Alt. Az. Time Alt. Az. Time Alt. Az.
19 Feb 9.2 05:50:25 10° NE 05:53:32 26° E 05:56:41 10° SSE visible
19 Feb 8.4 18:03:33 10° SSW 18:06:43 34° W 18:09:57 10° NNW visible
20 Feb 10.1 05:27:27 10° NE 05:29:38 15° E 05:31:49 10° SE visible
21 Feb 10.4 18:52:16 10° WSW 18:53:05 11° W 18:53:55 10° WNW visible
22 Feb 9.6 18:26:32 10° SW 18:29:07 19° W 18:31:43 10° NW visible
23 Feb 9.3 05:48:56 10° NE 05:52:04 26° E 05:55:13 10° SSE visible
23 Feb 8.4 18:02:00 10° SSW 18:05:12 35° W 18:08:29 10° NNW visible
24 Feb 10.2 05:25:58 10° NE 05:28:08 15° E 05:30:18 10° SE visible
25 Feb 10.4 18:50:27 10° WSW 18:51:33 11° W 18:52:39 10° WNW visible
26 Feb 9.6 18:24:54 10° SW 18:27:33 20° W 18:30:15 10° NW visible
27 Feb 9.4 05:47:24 10° NE 05:50:32 25° E 05:53:42 10° SSE visible
27 Feb 8.4 18:00:23 10° SSW 18:03:38 37° W 18:06:59 10° NNW visible
28 Feb 10.3 05:24:28 10° NE 05:26:35 15° E 05:28:44 10° SE visible
